VK6DUG Weather Reports


time (UTC)temp
C
wind
direction
speed
KPH
gust
KPH
rain 1hr
cm
rain 24hr
cm
rain mn
cm
humidity
%
barometer
mb
20260506211026 10 194 8.0 9.7 0.00 0.00 0.00 83 1033.8
20260506210022 10 318 3.2 4.8 0.00 0.00 0.00 84 1033.8
20260506205018 10 130 1.6 6.4 0.00 0.00 0.00 83 1033.7
20260506204034 10 211 6.4 9.7 0.00 0.00 0.00 83 1033.6
20260506203031 10 39 3.2 6.4 0.00 0.00 0.00 82 1033.5
20260506202027 10 150 3.2 6.4 0.00 0.00 0.00 82 1033.6
20260506201025 10 29 1.6 6.4 0.00 0.00 0.00 81 1033.5
20260506200022 10 73 1.6 3.2 0.00 0.00 0.00 79 1033.4
20260506195019 11 79 1.6 3.2 0.00 0.00 0.00 77 1033.2
20260506194016 11 102 0.0 3.2 0.00 0.00 0.00 77 1033.4
20260506193034 11 123 1.6 3.2 0.00 0.00 0.00 76 1033.3
20260506192032 12 308 1.6 3.2 0.00 0.00 0.00 75 1033.2
20260506191029 12 84 1.6 3.2 0.00 0.00 0.00 76 1033.2
20260506190026 12 88 1.6 3.2 0.00 0.00 0.00 77 1033.2
20260506185022 11 92 0.0 3.2 0.00 0.00 0.00 76 1033.2
20260506184019 12 111 1.6 4.8 0.00 0.00 0.00 75 1033.1
20260506183016 12 24 1.6 3.2 0.00 0.00 0.00 74 1033.0
20260506182033 12 69 1.6 3.2 0.00 0.00 0.00 73 1033.1
20260506181030 13 64 1.6 3.2 0.00 0.00 0.00 72 1033.2
20260506180027 13 69 1.6 4.8 0.00 0.00 0.00 72 1033.2
20260506175024 13 78 1.6 8.0 0.00 0.00 0.00 71 1033.1
20260506174021 13 63 3.2 6.4 0.00 0.00 0.00 71 1033.1
20260506173017 13 68 3.2 8.0 0.00 0.00 0.00 71 1033.1
20260506172016 13 82 3.2 8.0 0.00 0.00 0.00 71 1033.0
20260506171033 13 74 3.2 6.4 0.00 0.00 0.00 70 1033.1
20260506170030 13 75 1.6 6.4 0.00 0.00 0.00 70 1033.0
20260506165025 14 101 1.6 4.8 0.00 0.00 0.00 70 1033.1
20260506164022 13 84 3.2 8.0 0.00 0.00 0.00 71 1033.2
20260506163019 13 98 3.2 6.4 0.00 0.00 0.00 70 1033.2
20260506162016 14 108 3.2 6.4 0.00 0.00 0.00 70 1033.2
20260506161034 13 93 1.6 6.4 0.00 0.00 0.00 71 1033.4
20260506160031 13 109 1.6 4.8 0.00 0.00 0.00 71 1033.2
20260506155027 13 93 1.6 4.8 0.00 0.00 0.00 72 1033.2
20260506154023 13 115 1.6 4.8 0.00 0.00 0.00 71 1033.2
20260506153020 13 108 1.6 4.8 0.00 0.00 0.00 71 1033.2
20260506152018 13 102 3.2 6.4 0.00 0.00 0.00 72 1033.3
20260506151034 12 116 1.6 3.2 0.00 0.00 0.00 74 1033.2
20260506150029 12 126 0.0 3.2 0.00 0.00 0.00 74 1033.3
20260506145025 13 114 1.6 4.8 0.00 0.00 0.00 75 1033.2
20260506144019 12 111 1.6 4.8 0.00 0.00 0.00 76 1033.4
20260506143033 12 105 1.6 4.8 0.00 0.00 0.00 75 1033.2
20260506142028 13 106 1.6 3.2 0.00 0.00 0.00 74 1033.3
20260506141024 13 95 1.6 3.2 0.00 0.00 0.00 74 1033.3
20260506140019 13 105 1.6 3.2 0.00 0.00 0.00 78 1033.2
20260506135035 12 50 1.6 6.4 0.00 0.00 0.00 81 1033.3
20260506134032 12 81 1.6 3.2 0.00 0.00 0.00 81 1033.2
20260506133028 12 81 1.6 3.2 0.00 0.00 0.00 81 1033.1
20260506132024 12 85 1.6 3.2 0.00 0.00 0.00 81 1033.1
20260506131019 12 121 1.6 3.2 0.00 0.00 0.00 81 1033.1
20260506130018 12 93 1.6 3.2 0.00 0.00 0.00 80 1032.8
20260506125031 12 95 1.6 3.2 0.00 0.00 0.00 80 1032.8
20260506124027 13 93 1.6 3.2 0.00 0.00 0.00 80 1032.8
20260506123023 13 74 0.0 3.2 0.00 0.00 0.00 79 1032.6
20260506122020 13 108 1.6 3.2 0.00 0.00 0.00 78 1032.7
20260506121016 13 100 1.6 3.2 0.00 0.00 0.00 77 1032.6
20260506120032 13 97 1.6 3.2 0.00 0.00 0.00 77 1032.4
20260506115029 13 90 1.6 3.2 0.00 0.00 0.00 76 1032.3
20260506114026 13 109 0.0 3.2 0.00 0.00 0.00 76 1032.3
20260506113024 14 109 0.0 3.2 0.00 0.00 0.00 75 1032.2
20260506112020 14 97 1.6 3.2 0.00 0.00 0.00 74 1032.2
20260506111017 15 78 1.6 3.2 0.00 0.00 0.00 73 1032.1
20260506110034 15 71 1.6 3.2 0.00 0.00 0.00 72 1032.0
20260506105032 15 50 1.6 3.2 0.00 0.00 0.00 71 1032.0
20260506104027 15 80 1.6 3.2 0.00 0.00 0.00 70 1031.9
20260506103025 16 96 1.6 3.2 0.00 0.00 0.00 69 1031.9
20260506102020 16 101 0.0 3.2 0.00 0.00 0.00 67 1031.7
20260506101017 17 113 1.6 3.2 0.00 0.00 0.00 65 1031.7
20260506100034 17 125 1.6 3.2 0.00 0.00 0.00 62 1031.6
20260506095031 18 143 1.6 4.8 0.00 0.00 0.00 60 1031.6
20260506094028 18 148 3.2 6.4 0.00 0.00 0.00 58 1031.5
20260506093025 19 138 3.2 9.7 0.00 0.00 0.00 58 1031.4
20260506092022 20 139 4.8 6.4 0.00 0.00 0.00 56 1031.3
20260506091018 20 134 4.8 8.0 0.00 0.00 0.00 55 1031.3
20260506090035 20 118 3.2 4.8 0.00 0.00 0.00 53 1031.2
20260506085031 21 100 4.8 9.7 0.00 0.00 0.00 53 1031.1
20260506084028 21 79 3.2 6.4 0.00 0.00 0.00 52 1031.1
20260506083024 21 87 4.8 9.7 0.00 0.00 0.00 51 1031.1
20260506082022 21 74 4.8 11.3 0.00 0.00 0.00 51 1031.0
20260506081019 21 62 3.2 9.7 0.00 0.00 0.00 51 1031.0
20260506073027 22 64 4.8 11.3 0.00 0.00 0.00 51 1031.0
20260506072025 22 72 4.8 14.5 0.00 0.00 0.00 50 1031.0
20260506071023 22 80 3.2 11.3 0.00 0.00 0.00 50 1031.0
20260506062029 22 69 1.6 8.0 0.00 0.00 0.00 52 1030.9
20260506061026 21 81 3.2 9.7 0.00 0.00 0.00 52 1031.0
20260506051030 22 87 1.6 6.4 0.00 0.00 0.00 52 1031.1
20260506045025 21 77 3.2 8.0 0.00 0.00 0.00 55 1031.4
20260506044022 21 47 1.6 6.4 0.00 0.00 0.00 55 1031.5
20260506043020 21 10 1.6 8.0 0.00 0.00 0.00 56 1031.7
20260506042017 21 36 3.2 9.7 0.00 0.00 0.00 56 1031.9
20260506041035 20 360 3.2 9.7 0.00 0.00 0.00 57 1032.0
20260506040032 20 72 4.8 9.7 0.00 0.00 0.00 59 1032.2
20260506035029 20 76 3.2 9.7 0.00 0.00 0.00 59 1032.4
20260506034027 20 90 3.2 6.4 0.00 0.00 0.00 60 1032.4
20260506033024 19 69 3.2 14.5 0.00 0.00 0.00 61 1032.6
20260506032023 19 63 4.8 9.7 0.00 0.00 0.00 61 1032.6
20260506031019 19 73 4.8 9.7 0.00 0.00 0.00 62 1032.7
20260506030016 19 123 1.6 6.4 0.00 0.00 0.00 61 1032.7
20260506025033 18 106 1.6 8.0 0.00 0.00 0.00 64 1032.8
20260506024030 18 107 3.2 12.9 0.00 0.00 0.00 64 1033.0
20260506023028 18 111 4.8 11.3 0.00 0.00 0.00 64 1032.8
20260506022025 18 122 3.2 9.7 0.00 0.00 0.00 65 1033.0
20260506021022 17 125 4.8 11.3 0.00 0.00 0.00 67 1033.0
20260506020020 17 122 6.4 12.9 0.00 0.00 0.00 68 1033.1
20260506015017 17 129 4.8 11.3 0.00 0.00 0.00 69 1033.1
20260506014036 17 149 4.8 8.0 0.00 0.00 0.00 70 1033.0
20260506013033 17 143 4.8 8.0 0.00 0.00 0.00 70 1033.0
20260506012030 16 140 3.2 9.7 0.00 0.00 0.00 71 1032.9
20260506011028 16 125 4.8 9.7 0.00 0.00 0.00 72 1032.9
20260506010025 16 118 4.8 9.7 0.00 0.00 0.00 74 1032.9
20260506005022 15 114 4.8 12.9 0.00 0.00 0.00 75 1032.8
20260506004020 15 113 4.8 14.5 0.00 0.00 0.00 76 1032.7
20260506003017 15 57 4.8 9.7 0.00 0.00 0.00 78 1032.8
20260506002035 14 88 6.4 11.3 0.00 0.00 0.00 79 1032.7
20260506001032 13 53 4.8 11.3 0.00 0.00 0.00 81 1032.6
20260506000030 13 93 4.8 9.7 0.00 0.00 0.00 83 1032.5
20260505235027 12 109 4.8 9.7 0.00 0.00 0.00 84 1032.3
20260505234024 12 102 3.2 8.0 0.00 0.00 0.00 83 1032.1
20260505233021 12 221 1.6 6.4 0.00 0.00 0.00 83 1032.0
20260505232018 12 82 4.8 11.3 0.00 0.00 0.00 83 1031.9
20260505231035 12 25 6.4 12.9 0.00 0.00 0.00 83 1031.9
20260505230030 12 89 4.8 8.0 0.00 0.00 0.00 83 1031.8
20260505225026 12 37 4.8 9.7 0.00 0.00 0.00 83 1031.7
20260505224023 12 35 4.8 14.5 0.00 0.00 0.00 83 1031.6
20260505223020 12 135 6.4 12.9 0.00 0.00 0.00 83 1031.5
20260505222035 12 124 3.2 8.0 0.00 0.00 0.00 83 1031.5
20260505221030 12 189 6.4 9.7 0.00 0.00 0.00 82 1031.3
20260505220025 12 25 4.8 8.0 0.00 0.00 0.00 82 1031.3
20260505215019 12 70 4.8 9.7 0.00 0.00 0.00 82 1031.2
20260505214035 12 18 4.8 12.9 0.00 0.00 0.00 83 1031.2
20260505213029 12 4 4.8 9.7 0.00 0.00 0.00 83 1031.0
20260505212024 12 93 3.2 9.7 0.00 0.00 0.00 83 1031.0